[[{"header":{"parameterUnit":"m.s-1","parameterCategory":2,"la1":30.2991,"la2":30.254,"lo1":-89.0895,"lo2":-89.0444,"dy":0.0017,"dx":0.0017,"nx":28,"ny":28,"refTime":"2023-08-19T09:00:00:Z","depth":"0","parameterNumber":2,"parameterNumberName":"U-component_of_CURRENTS"},"data":[0,0,0,0,0,0,0,0,0,0,0,0,0,0,0,0,0,0,0,0,0,0,0,0,0,0,0,0,0,0,0,0,0,0,0,0,0,0,0,0,0,0,0,0,0,0,0,0,0,0,0,0,0,0,0,0,0,0,0.1513,0.1514,0,0.1675,0.1677,0.168,0.1811,0.1812,0.1813,0.1814,0.1815,0.1814,0.1814,0,0,0,0,0,0,0,0,0,0,0,0,0,0.1461,0.1461,0.1513,0.1514,0.1516,0.1675,0.1678,0.168,0.1811,0.1812,0.1813,0.1814,0.1815,0.1814,0.1813,0,0,0,0,0,0,0,0,0,0,0,0,0,0.1544,0.1461,0.1513,0.1596,0.1605,0.1674,0.1678,0.1681,0.1811,0.1812,0.1813,0.1814,0.1816,0.1814,0.1813,0.1781,0,0,0.181,0.1809,0,0,0,0,0,0,0,0,0.1539,0.1547,0.1582,0.159,0.16,0.1719,0.166,0.1705,0.181,0.1738,0.1814,0.1815,0.1763,0.1767,0.1805,0.1781,0.1781,0.181,0.1809,0.1809,0.1808,0,0,0,0,0,0,0,0.1533,0.1541,0.1583,0.1584,0.1595,0.1675,0.1687,0.1671,0.1743,0.1745,0.1753,0.1762,0.1768,0.1806,0.1805,0.1782,0.181,0.1809,0.1808,0.1808,0.1805,0.1805,0,0,0,0,0,0,0.1493,0.1535,0.1578,0.1587,0.1566,0.1674,0.1688,0.1684,0.1747,0.1758,0.1761,0.1767,0.1807,0.1806,0.1805,0.1853,0.1809,0.1808,0.1807,0.1804,0.1805,0.1805,0,0,0,0,0,0,0.1491,0.1494,0.1571,0.1562,0.1576,0.1671,0.1668,0.1687,0.1739,0.176,0.1769,0.1794,0.1808,0.1807,0.1859,0.185,0.1807,0.1806,0.1803,0.1804,0.1805,0.1893,0,0,0,0,0,0,0.1488,0.1492,0.1495,0.1558,0.1575,0.1609,0.1666,0.1689,0.1739,0.175,0.179,0.1792,0.1809,0.1861,0.1858,0.1848,0.1805,0.1803,0.1804,0.1805,0.189,0.1897,0.1903,0,0,0,0,0,0.1486,0.1486,0.1494,0.15,0.1568,0.1608,0.1625,0.1703,0.1739,0.1757,0.1832,0.1792,0.1863,0.1863,0.1859,0.1847,0.1802,0.1803,0.1805,0.1886,0.1895,0.1903,0,0,0,0,0,0,0.154,0.1501,0.1511,0.1521,0.1554,0.1628,0.1655,0.17,0.1776,0.1784,0.1826,0.1834,0.1861,0.1844,0.1843,0.1847,0.1812,0.1813,0.1876,0.1884,0.1891,0.1905,0.1804,0,0,0,0,0,0.1527,0.1482,0.15,0.152,0.1515,0.1581,0.1614,0.1651,0.1715,0.1752,0.1792,0.1824,0.1857,0.187,0.1876,0.1891,0.1893,0.187,0.1877,0.1883,0.189,0.1918,0.1929,0.181,0.181,0.181,0,0,0.1557,0.1536,0.1518,0.1521,0.155,0.158,0.1606,0.1634,0.1701,0.1729,0.183,0.184,0.1866,0.1904,0.1908,0.1896,0.1921,0.1884,0.189,0.1894,0.1921,0.1933,0.1943,0.1811,0.181,0.181,0,0,0.1605,0.1563,0.1542,0.154,0.1546,0.158,0.1581,0.1633,0.1688,0.1774,0.1811,0.185,0.1893,0.193,0.1953,0.1992,0.1951,0.1951,0.2007,0.2035,0.2045,0.2055,0.2091,0.2103,0.1961,0.1962,0.1962,0,0.1654,0.1627,0.1562,0.1559,0.157,0.1577,0.1605,0.1663,0.1749,0.1795,0.1808,0.1902,0.192,0.1986,0.2023,0.2008,0.2016,0.1982,0.2047,0.2056,0.2064,0.2098,0.211,0.1966,0.1965,0.1965,0.1965,0,0.1665,0.1669,0.1659,0.1637,0.1648,0.1654,0.1688,0.1733,0.179,0.1853,0.1917,0.1962,0.2016,0.2013,0.2054,0.2096,0.2081,0.2051,0.2033,0.2082,0.2114,0.2126,0.1972,0.1971,0.1969,0.1968,0,0,0.1713,0.167,0.1674,0.1674,0.1667,0.1677,0.1761,0.1832,0.1892,0.1955,0.2034,0.2113,0.2098,0.2121,0.2119,0.216,0.2249,0.2141,0.2141,0.2191,0.2318,0.2369,0.2385,0.2227,0.2229,0.2231,0.2326,0,0.1756,0.1765,0.1732,0.1776,0.1776,0.1778,0.1857,0.1916,0.1979,0.2048,0.2082,0.2137,0.2147,0.2153,0.2201,0.2218,0.2278,0.2227,0.2251,0.2252,0.2302,0.24,0.2458,0.2552,0.2336,0.2338,0.2339,0,0.1757,0.1767,0.1804,0.1817,0.1813,0.1847,0.1909,0.1969,0.2059,0.211,0.2155,0.2168,0.2234,0.2218,0.2309,0.2271,0.2317,0.2339,0.2342,0.2365,0.2324,0.2462,0.258,0.2598,0.2356,0.2355,0.2353,0,0.1782,0.1802,0.1833,0.1828,0.1862,0.1891,0.1909,0.199,0.204,0.2118,0.2158,0.2215,0.2237,0.2294,0.2373,0.2338,0.2469,0.2414,0.2508,0.2511,0.2555,0.2559,0.2705,0.2502,0.2502,0.2501,0.2501,0,0.1799,0.182,0.1838,0.1852,0.1891,0.1883,0.1931,0.1989,0.2041,0.2093,0.2155,0.2209,0.2259,0.2338,0.2393,0.2508,0.2493,0.2552,0.2553,0.2588,0.2594,0.2603,0.2497,0.2505,0.2504,0.2504,0.2503,0,0.1813,0.1827,0.1861,0.1899,0.1903,0.1916,0.1925,0.1949,0.2018,0.2079,0.2102,0.2215,0.2332,0.2408,0.251,0.2545,0.2624,0.2683,0.2733,0.2739,0.2812,0.2705,0.2719,0.2694,0.2783,0.2785,0.2787,0,0.1816,0.1837,0.1889,0.1893,0.1903,0.1908,0.1909,0.1951,0.1973,0.2096,0.2123,0.2259,0.2376,0.2561,0.2676,0.2805,0.2728,0.2901,0.2851,0.2868,0.2749,0.2634,0.2602,0.2946,0.2948,0.2951,0.2953,0,0.182,0.1844,0.1867,0.1888,0.1885,0.1896,0.1893,0.1921,0.1972,0.2055,0.2177,0.2278,0.2499,0.2676,0.2856,0.2934,0.2844,0.2951,0.296,0.2897,0.2787,0.2747,0.2825,0.2974,0.2972,0.297,0.2969,0.2968,0.1802,0.1814,0.1831,0.1851,0.185,0.1864,0.1864,0.1885,0.1946,0.2042,0.2165,0.2314,0.2608,0.2887,0.2993,0.3189,0.3001,0.3173,0.3048,0.2938,0.2902,0.3038,0.3185,0.3184,0.3184,0.3183,0.3182,0,0.1744,0.175,0.1771,0.179,0.1781,0.1808,0.183,0.1828,0.1889,0.2007,0.2123,0.242,0.2708,0.296,0.3229,0.3264,0.3236,0.3249,0.3112,0.3077,0.3241,0.3243,0.3421,0.3421,0.3421,0.3421,0.3421,0.3421,0.17,0.1685,0.1717,0.1706,0.1719,0.1693,0.1709,0.1745,0.1809,0.1939,0.2075,0.2212,0.2557,0.2951,0.3193,0.3233,0.3134,0.3123,0.3028,0.3168,0.3152,0.3137,0.3127,0.3277,0.3277,0.294,0.2937,0.2934]},{"header":{"parameterUnit":"m.s-1","parameterCategory":2,"la1":30.2991,"la2":30.254,"lo1":-89.0895,"lo2":-89.0444,"dy":0.0017,"dx":0.0017,"nx":28,"ny":28,"refTime":"2023-08-19T09:00:00:Z","depth":"0","parameterNumber":3,"parameterNumberName":"V-component_of_CURRENTS"},"data":[0,0,0,0,0,0,0,0,0,0,0,0,0,0,0,0,0,0,0,0,0,0,0,0,0,0,0,0,0,0,0,0,0,0,0,0,0,0,0,0,0,0,0,0,0,0,0,0,0,0,0,0,0,0,0,0,0,0,-0.014,-0.0139,0,-0.0165,-0.0166,-0.0167,-0.0193,-0.0192,-0.0192,-0.0192,-0.0173,-0.0173,-0.0173,0,0,0,0,0,0,0,0,0,0,0,0,0,-0.0215,-0.0213,-0.014,-0.0139,-0.0139,-0.0165,-0.0166,-0.0167,-0.0193,-0.0192,-0.0192,-0.0192,-0.0173,-0.0173,-0.0173,0,0,0,0,0,0,0,0,0,0,0,0,0,-0.0212,-0.0213,-0.014,-0.015,-0.0151,-0.0165,-0.0166,-0.0167,-0.0193,-0.0192,-0.0192,-0.0192,-0.0173,-0.0173,-0.0173,-0.0179,0,0,-0.0171,-0.0171,0,0,0,0,0,0,0,0,-0.0212,-0.021,-0.0149,-0.0149,-0.015,-0.0169,-0.0185,-0.0166,-0.0193,-0.0184,-0.0192,-0.0191,-0.0163,-0.0164,-0.018,-0.0178,-0.0177,-0.0171,-0.0171,-0.0171,-0.0171,0,0,0,0,0,0,0,-0.0212,-0.0209,-0.0157,-0.0148,-0.0149,-0.0187,-0.0186,-0.0183,-0.018,-0.0185,-0.0185,-0.0177,-0.0164,-0.0181,-0.018,-0.0177,-0.0171,-0.0171,-0.0171,-0.0171,-0.0186,-0.0186,0,0,0,0,0,0,-0.0189,-0.0209,-0.0156,-0.0157,-0.0173,-0.0185,-0.0185,-0.0169,-0.0181,-0.0181,-0.0177,-0.0178,-0.0181,-0.018,-0.0179,-0.0162,-0.0171,-0.0171,-0.017,-0.0185,-0.0186,-0.0186,0,0,0,0,0,0,-0.0191,-0.0184,-0.0155,-0.0179,-0.0177,-0.0183,-0.0167,-0.017,-0.0176,-0.0175,-0.0175,-0.0178,-0.0181,-0.0179,-0.0173,-0.0162,-0.0171,-0.017,-0.0184,-0.0185,-0.0186,-0.0142,0,0,0,0,0,0,-0.0193,-0.0185,-0.0173,-0.0176,-0.0174,-0.0149,-0.0166,-0.017,-0.0169,-0.017,-0.0176,-0.0174,-0.0181,-0.0173,-0.0172,-0.0161,-0.017,-0.0184,-0.0185,-0.0186,-0.0143,-0.0142,-0.0141,0,0,0,0,0,-0.0195,-0.0191,-0.0172,-0.0165,-0.0155,-0.0148,-0.0151,-0.016,-0.0169,-0.0167,-0.0177,-0.0174,-0.018,-0.0173,-0.0172,-0.016,-0.0183,-0.0184,-0.0186,-0.0144,-0.0142,-0.0141,0,0,0,0,0,0,-0.023,-0.0192,-0.0172,-0.0157,-0.0139,-0.0149,-0.0156,-0.0155,-0.0165,-0.0167,-0.0174,-0.0173,-0.0166,-0.0175,-0.0167,-0.0173,-0.0184,-0.0185,-0.0153,-0.0151,-0.015,-0.0122,-0.017,0,0,0,0,0,-0.0223,-0.0208,-0.0172,-0.0164,-0.015,-0.0148,-0.0149,-0.0145,-0.015,-0.0155,-0.0155,-0.0166,-0.0175,-0.017,-0.0179,-0.0173,-0.0181,-0.0171,-0.017,-0.0168,-0.0148,-0.0166,-0.0163,-0.0191,-0.0191,-0.0191,0,0,-0.0225,-0.0214,-0.0197,-0.0169,-0.0163,-0.0136,-0.015,-0.0143,-0.0121,-0.0149,-0.0135,-0.0156,-0.0174,-0.0174,-0.0172,-0.0174,-0.0167,-0.017,-0.0168,-0.0148,-0.0167,-0.0164,-0.0161,-0.0192,-0.0192,-0.0192,0,0,-0.0241,-0.0216,-0.0201,-0.0182,-0.0156,-0.014,-0.0128,-0.0116,-0.0111,-0.0094,-0.012,-0.0128,-0.0134,-0.0146,-0.0154,-0.015,-0.0162,-0.0165,-0.0126,-0.0144,-0.0141,-0.0139,-0.0148,-0.0147,-0.0161,-0.0161,-0.0161,0,-0.024,-0.0216,-0.0199,-0.0185,-0.0163,-0.0133,-0.0104,-0.0091,-0.0079,-0.0076,-0.0079,-0.0105,-0.0116,-0.0122,-0.0125,-0.0142,-0.0157,-0.0126,-0.014,-0.0137,-0.0136,-0.0146,-0.0145,-0.0159,-0.0159,-0.016,-0.016,0,-0.0232,-0.0211,-0.0209,-0.0161,-0.014,-0.0115,-0.0071,-0.0048,-0.0032,-0.0026,-0.0023,-0.0045,-0.0062,-0.0074,-0.0092,-0.0094,-0.0112,-0.0136,-0.0135,-0.0129,-0.0142,-0.0141,-0.0156,-0.0157,-0.0158,-0.0158,0,0,-0.0219,-0.0198,-0.0195,-0.0164,-0.012,-0.0093,-0.0054,-0.0007,0.0016,0.0027,0.0043,0.0023,0.0002,-0.001,-0.0041,-0.0048,-0.0051,-0.0081,-0.0083,-0.0075,-0.0088,-0.0124,-0.0127,-0.0084,-0.0083,-0.0083,-0.0102,0,-0.0203,-0.0177,-0.017,-0.0115,-0.0076,-0.0044,-0.0011,0.0026,0.0048,0.0071,0.006,0.0056,0.0029,0.0015,0.0005,-0.004,-0.0048,-0.0043,-0.0108,-0.0109,-0.0129,-0.0127,-0.0118,-0.0137,-0.0102,-0.0102,-0.0102,0,-0.0174,-0.0162,-0.0121,-0.0073,-0.0054,-0.002,0.0046,0.0073,0.01,0.0111,0.011,0.0094,0.0088,0.0061,0.0018,0.0018,-0.0026,-0.0054,-0.0057,-0.0098,-0.0144,-0.0139,-0.0138,-0.0207,-0.0102,-0.0102,-0.0102,0,-0.0147,-0.0112,-0.0079,-0.0061,-0.001,0.0014,0.0045,0.0077,0.0102,0.0129,0.0145,0.013,0.0125,0.0081,0.0027,0.0015,-0.0019,-0.0051,-0.0118,-0.0121,-0.0127,-0.0132,-0.0184,-0.0078,-0.0077,-0.0077,-0.0077,0,-0.0114,-0.008,-0.0063,-0.0038,0.0015,0.003,0.0077,0.0109,0.0131,0.0161,0.0155,0.0183,0.0129,0.0103,0.0046,-0.0028,-0.001,-0.0099,-0.0126,-0.0115,-0.0118,-0.0191,-0.0195,-0.0078,-0.0078,-0.0078,-0.0078,0,-0.008,-0.0075,-0.0022,0.0016,0.003,0.0068,0.0108,0.0129,0.0152,0.0193,0.0203,0.0219,0.0191,0.0131,0.0063,-0.0009,-0.0121,-0.0108,-0.0084,-0.0109,-0.0251,-0.0252,-0.0388,-0.0414,-0.0186,-0.0187,-0.0188,0,-0.0061,-0.0039,0.0014,0.004,0.0059,0.0101,0.0118,0.0144,0.0166,0.0223,0.0244,0.024,0.0261,0.0156,0.003,-0.0077,-0.0144,-0.0159,-0.0183,-0.0248,-0.0269,-0.0358,-0.0375,-0.0174,-0.0175,-0.0175,-0.0176,0,-0.0018,-0.0004,0.0031,0.0071,0.01,0.0139,0.0168,0.0192,0.0218,0.0263,0.0321,0.0347,0.0263,0.0187,0.0029,-0.0068,-0.0218,-0.0176,-0.0247,-0.0259,-0.0353,-0.0395,-0.0168,-0.018,-0.018,-0.0179,-0.0179,-0.0179,0.0008,0.0039,0.0067,0.0111,0.0142,0.0172,0.0205,0.023,0.0276,0.0356,0.038,0.0461,0.0364,0.0159,-0.001,-0.0269,-0.0274,-0.0331,-0.0324,-0.041,-0.0445,-0.0228,-0.0276,-0.0277,-0.0277,-0.0277,-0.0277,0,0.0034,0.0059,0.0101,0.0157,0.0191,0.0195,0.0235,0.0266,0.0325,0.0417,0.049,0.0555,0.039,0.0193,-0.0117,-0.0342,-0.0482,-0.0454,-0.055,-0.0555,-0.0359,-0.0367,-0.0433,-0.0433,-0.0432,-0.0432,-0.0432,-0.0432,0.0049,0.0089,0.0108,0.0179,0.0212,0.0252,0.0271,0.0324,0.0398,0.0537,0.0651,0.0742,0.0736,0.0147,-0.0278,-0.0414,-0.058,-0.0674,-0.072,-0.0543,-0.0532,-0.052,-0.0533,-0.0632,-0.0632,-0.095,-0.0952,-0.0954]}],[{"header":{"parameterUnit":"m.s-1","parameterCategory":2,"la1":30.2991,"la2":30.254,"lo1":-89.0895,"lo2":-89.0444,"dy":0.0017,"dx":0.0017,"nx":28,"ny":28,"refTime":"2023-08-19T09:00:00:Z","depth":"2","parameterNumber":2,"parameterNumberName":"U-component_of_CURRENTS"},"data":[0,0,0,0,0,0,0,0,0,0,0,0,0,0,0,0,0,0,0,0,0,0,0,0,0,0,0,0,0,0,0,0,0,0,0,0,0,0,0,0,0,0,0,0,0,0,0,0,0,0,0,0,0,0,0,0,0,0,-0.0128,-0.013,0,-0.0485,-0.0491,-0.0496,-0.0742,-0.0742,-0.0742,-0.0742,-0.0802,-0.0804,-0.0805,0,0,0,0,0,0,0,0,0,0,0,0,0,-0.0071,-0.007,-0.0127,-0.013,-0.0133,-0.0484,-0.0491,-0.0498,-0.0742,-0.0742,-0.0742,-0.0742,-0.0802,-0.0803,-0.0805,0,0,0,0,0,0,0,0,0,0,0,0,0,-0.0247,-0.007,-0.0127,-0.0282,-0.0298,-0.0483,-0.0491,-0.05,-0.0742,-0.0742,-0.0742,-0.0742,-0.0801,-0.0803,-0.0806,-0.0822,0,0,-0.0813,-0.0814,0,0,0,0,0,0,0,0,-0.0236,-0.0251,-0.0257,-0.0271,-0.0289,-0.0551,-0.0493,-0.0585,-0.0742,-0.0595,-0.0742,-0.0742,-0.0677,-0.069,-0.0791,-0.0825,-0.0827,-0.0813,-0.0815,-0.0816,-0.0817,0,0,0,0,0,0,0,-0.0223,-0.0239,-0.029,-0.0259,-0.0279,-0.0474,-0.0498,-0.0516,-0.0642,-0.0608,-0.0622,-0.0629,-0.0687,-0.0788,-0.0792,-0.0828,-0.0813,-0.0815,-0.0817,-0.0818,-0.0723,-0.0719,0,0,0,0,0,0,-0.0116,-0.0225,-0.0278,-0.0298,-0.0239,-0.0472,-0.05,-0.0484,-0.0649,-0.0671,-0.0629,-0.0639,-0.0784,-0.0789,-0.0794,-0.076,-0.0816,-0.0818,-0.082,-0.0727,-0.0722,-0.0718,0,0,0,0,0,0,-0.0113,-0.0116,-0.0263,-0.0256,-0.0286,-0.0467,-0.0452,-0.049,-0.0521,-0.0664,-0.0685,-0.0607,-0.0784,-0.0791,-0.081,-0.0765,-0.0819,-0.0821,-0.0732,-0.0726,-0.072,-0.0727,0,0,0,0,0,0,-0.011,-0.0113,-0.0085,-0.0247,-0.0281,-0.0321,-0.0451,-0.0497,-0.052,-0.0536,-0.0652,-0.0665,-0.0785,-0.0806,-0.0812,-0.0769,-0.0823,-0.0737,-0.0729,-0.0722,-0.0732,-0.0722,-0.0714,0,0,0,0,0,-0.0106,-0.0078,-0.0081,-0.0088,-0.0228,-0.0316,-0.0354,-0.0502,-0.0516,-0.0529,-0.0633,-0.0658,-0.0759,-0.0808,-0.0816,-0.0771,-0.0741,-0.0731,-0.0723,-0.0736,-0.0724,-0.0714,0,0,0,0,0,0,-0.0119,-0.0102,-0.011,-0.0098,-0.0159,-0.0348,-0.0393,-0.0431,-0.0534,-0.0552,-0.0653,-0.0674,-0.0668,-0.0684,-0.0732,-0.0705,-0.0731,-0.0724,-0.0738,-0.0727,-0.0718,-0.0707,-0.0825,0,0,0,0,0,-0.0072,-0.0007,-0.0062,-0.0059,-0.0068,-0.0193,-0.0244,-0.0326,-0.0426,-0.0474,-0.0553,-0.0608,-0.0648,-0.0658,-0.0711,-0.07,-0.0682,-0.0649,-0.064,-0.0634,-0.0619,-0.0572,-0.056,-0.0689,-0.0689,-0.0689,0,0,-0.0059,-0.0064,-0.002,-0.0048,-0.0126,-0.0156,-0.0231,-0.029,-0.0343,-0.0451,-0.0541,-0.058,-0.0632,-0.0678,-0.0663,-0.0681,-0.058,-0.0622,-0.0618,-0.0606,-0.0562,-0.055,-0.054,-0.0683,-0.0684,-0.0685,0,0,-0.0087,-0.0014,0.0002,0.0006,-0.005,-0.012,-0.008,-0.0205,-0.0284,-0.0336,-0.0437,-0.0454,-0.0498,-0.0591,-0.0617,-0.0548,-0.0535,-0.0499,-0.0463,-0.0418,-0.0409,-0.0401,-0.0357,-0.0345,-0.0497,-0.0497,-0.0497,0,-0.0114,-0.0078,-0.0022,-0.0027,-0.0022,-0.0056,-0.0072,-0.0155,-0.0283,-0.033,-0.0335,-0.0409,-0.0471,-0.0511,-0.0532,-0.0536,-0.0493,-0.0528,-0.0414,-0.0405,-0.0397,-0.0354,-0.034,-0.0496,-0.0496,-0.0496,-0.0496,0,-0.0124,-0.0091,-0.0086,-0.0059,-0.0038,-0.0057,-0.0088,-0.0122,-0.0153,-0.0241,-0.0259,-0.0353,-0.0376,-0.0385,-0.0464,-0.0419,-0.0401,-0.0419,-0.0464,-0.0385,-0.0343,-0.0329,-0.0495,-0.0495,-0.0495,-0.0496,0,0,-0.0173,-0.0121,-0.0094,-0.0075,-0.0041,-0.0026,-0.0062,-0.0122,-0.013,-0.0196,-0.0179,-0.0291,-0.0285,-0.0307,-0.0356,-0.0347,-0.0292,-0.0354,-0.0352,-0.0349,-0.0168,-0.0052,-0.0026,-0.0282,-0.028,-0.0278,-0.0164,0,-0.023,-0.0236,-0.0169,-0.0123,-0.0112,-0.0066,-0.0066,-0.0089,-0.0139,-0.0132,-0.017,-0.0152,-0.0265,-0.0218,-0.0243,-0.0273,-0.0252,-0.032,-0.0208,-0.0205,-0.0145,-0.0005,-0.0127,-0.0025,-0.015,-0.0148,-0.0146,0,-0.0222,-0.0232,-0.0225,-0.013,-0.0106,-0.0059,0.0006,0.0006,-0.0002,-0.0019,-0.0008,-0.0013,-0.0012,-0.0053,-0.0082,-0.0108,-0.0127,-0.015,-0.0146,-0.0024,-0.0061,-0.0117,0.0005,-0.0123,-0.0125,-0.0127,-0.0128,0,-0.0226,-0.0212,-0.0209,-0.0164,-0.0098,-0.0057,0.0021,0.0035,0.0034,0.0121,0.0139,0.0153,0.0227,0.0189,0.0093,0.0044,0.0107,0.0034,0.0121,0.0127,0.0055,0.0053,0.0072,0.0071,0.0071,0.0071,0.0071,0,-0.0246,-0.0199,-0.0198,-0.0159,-0.0076,0.0011,0.0116,0.0151,0.021,0.0249,0.0245,0.0276,0.0301,0.03,0.02,0.0219,0.0196,0.0176,0.0188,0.0057,0.0054,-0.0015,-0.0027,0.0075,0.0074,0.0073,0.0073,0,-0.0189,-0.0213,-0.0176,-0.0124,-0.007,0.0045,0.0228,0.0259,0.0309,0.0382,0.0444,0.0435,0.0489,0.045,0.046,0.0395,0.0381,0.0391,0.0251,0.0249,0.0342,0.0329,0.0536,0.0541,0.0546,0.055,0.0553,0,-0.0161,-0.0171,-0.0102,-0.0035,0.001,0.0178,0.027,0.0348,0.0375,0.0426,0.0448,0.0552,0.0585,0.0649,0.0652,0.0646,0.0538,0.0536,0.0424,0.0412,0.0401,0.0381,0.0362,0.0303,0.0304,0.0305,0.0306,0,-0.0078,-0.0065,-0.0002,0.0055,0.0153,0.0239,0.0375,0.039,0.0467,0.0489,0.0522,0.0572,0.0701,0.0719,0.0796,0.0718,0.0538,0.0563,0.0596,0.0237,0.0211,0.0194,0.018,0.0313,0.0312,0.0312,0.0311,0.0311,0.0051,0.009,0.0133,0.0199,0.028,0.0274,0.0355,0.0414,0.0467,0.0507,0.0555,0.0614,0.0593,0.0719,0.0684,0.0707,0.0731,0.0588,0.0576,0.0565,0.0551,0.0539,0.0697,0.0699,0.07,0.0701,0.0702,0,0.0184,0.021,0.0275,0.0318,0.035,0.0369,0.0397,0.0414,0.0474,0.0551,0.0627,0.0498,0.0535,0.0553,0.0627,0.065,0.0535,0.0579,0.0366,0.0361,0.0355,0.032,0.0411,0.0411,0.0411,0.041,0,0,0.0241,0.0326,0.0285,0.0342,0.0397,0.0395,0.0394,0.0399,0.0444,0.0476,0.0544,0.0564,0.0556,0.0466,0.0431,0.0475,0.0416,0.0448,0.0672,0.0418,0.0412,0.0347,0.029,0,0,0,0,0]},{"header":{"parameterUnit":"m.s-1","parameterCategory":2,"la1":30.2991,"la2":30.254,"lo1":-89.0895,"lo2":-89.0444,"dy":0.0017,"dx":0.0017,"nx":28,"ny":28,"refTime":"2023-08-19T09:00:00:Z","depth":"2","parameterNumber":3,"parameterNumberName":"V-component_of_CURRENTS"},"data":[0,0,0,0,0,0,0,0,0,0,0,0,0,0,0,0,0,0,0,0,0,0,0,0,0,0,0,0,0,0,0,0,0,0,0,0,0,0,0,0,0,0,0,0,0,0,0,0,0,0,0,0,0,0,0,0,0,0,-0.0167,-0.0166,0,0.0018,0.0022,0.0025,0.0131,0.013,0.0129,0.0128,0.0232,0.0236,0.024,0,0,0,0,0,0,0,0,0,0,0,0,0,-0.0254,-0.0253,-0.0167,-0.0166,-0.0166,0.0018,0.0022,0.0026,0.0131,0.013,0.0129,0.0127,0.0231,0.0236,0.024,0,0,0,0,0,0,0,0,0,0,0,0,0,-0.0142,-0.0252,-0.0167,-0.0104,-0.0097,0.0017,0.0022,0.0027,0.0132,0.013,0.0128,0.0126,0.023,0.0235,0.0241,0.0313,0,0,0.0259,0.0261,0,0,0,0,0,0,0,0,-0.0148,-0.0136,-0.0114,-0.0108,-0.0101,0.0035,0.0029,0.0113,0.0132,0.0063,0.0128,0.0126,0.0149,0.0161,0.0226,0.0318,0.0322,0.0259,0.0263,0.0266,0.0267,0,0,0,0,0,0,0,-0.0156,-0.0143,-0.0076,-0.0113,-0.0105,-0.0025,-0.0011,0.0048,0.0125,0.0069,0.0073,0.0067,0.0154,0.022,0.0228,0.0324,0.0259,0.0265,0.0268,0.027,0.0376,0.0375,0,0,0,0,0,0,-0.0221,-0.0151,-0.0082,-0.0072,-0.0149,-0.0024,-0.0007,0.0007,0.0127,0.0139,0.0068,0.007,0.0211,0.0222,0.0232,0.0229,0.0265,0.0271,0.0274,0.0377,0.0376,0.0375,0,0,0,0,0,0,-0.0223,-0.0215,-0.009,-0.0122,-0.0103,-0.0024,-0.0007,0.0011,0.0019,0.0124,0.0138,0.0047,0.021,0.0224,0.0272,0.0237,0.0274,0.0279,0.0377,0.0376,0.0375,0.0283,0,0,0,0,0,0,-0.0225,-0.0216,-0.0226,-0.0126,-0.0105,-0.0063,-0.0006,0.0016,0.0013,0.0018,0.0112,0.0124,0.021,0.0263,0.0278,0.0245,0.0284,0.0378,0.0377,0.0376,0.0287,0.0279,0.0272,0,0,0,0,0,-0.0228,-0.024,-0.0227,-0.022,-0.012,-0.0066,-0.0045,0.0017,0.0012,0.0019,0.0096,0.0118,0.0263,0.0269,0.0286,0.0254,0.0379,0.0377,0.0376,0.029,0.0281,0.0272,0,0,0,0,0,0,-0.0256,-0.0229,-0.0212,-0.0208,-0.0166,-0.0056,-0.0038,-0.0025,0.0047,0.0058,0.0133,0.0153,0.0181,0.0228,0.023,0.0279,0.0314,0.0316,0.0243,0.0235,0.0227,0.0206,0.0288,0,0,0,0,0,-0.0278,-0.0275,-0.024,-0.022,-0.0218,-0.0144,-0.0121,-0.0078,-0.0009,0.002,0.0067,0.0133,0.0202,0.022,0.0295,0.0324,0.034,0.0306,0.0298,0.0292,0.0286,0.0296,0.0288,0.037,0.037,0.037,0,0,-0.0277,-0.026,-0.0256,-0.0228,-0.0175,-0.0154,-0.0129,-0.0093,-0.0066,0.0019,0.0059,0.0111,0.0205,0.0259,0.0269,0.0282,0.0273,0.029,0.0283,0.0281,0.0293,0.0285,0.0278,0.0369,0.0369,0.0369,0,0,-0.026,-0.0266,-0.0263,-0.0251,-0.0217,-0.0169,-0.0195,-0.0133,-0.0106,-0.0054,0.001,0.0037,0.0128,0.0193,0.0239,0.0224,0.0238,0.0217,0.016,0.0168,0.0161,0.0156,0.0143,0.0137,0.0206,0.0206,0.0206,0,-0.0253,-0.025,-0.0249,-0.0246,-0.0239,-0.0204,-0.0195,-0.0148,-0.0079,-0.0064,-0.0059,0.0052,0.0109,0.0171,0.017,0.0205,0.0201,0.0187,0.0157,0.0152,0.0148,0.0136,0.0131,0.0201,0.0202,0.0202,0.0203,0,-0.0243,-0.0246,-0.0242,-0.0228,-0.0222,-0.02,-0.0174,-0.0157,-0.0144,-0.0107,-0.0078,0.0007,0.006,0.0066,0.0124,0.011,0.0112,0.015,0.0175,0.0133,0.0124,0.012,0.0195,0.0196,0.0198,0.0199,0,0,-0.0217,-0.0229,-0.0241,-0.0224,-0.0219,-0.0194,-0.0176,-0.0145,-0.0133,-0.0106,-0.0101,-0.0022,-0.0031,0.0017,0.0053,0.0049,0.0007,0.0066,0.0069,0.0044,-0.0006,-0.0012,-0.0016,0.0027,0.0026,0.0026,-0.0009,0,-0.0201,-0.0201,-0.0224,-0.0201,-0.019,-0.018,-0.017,-0.0142,-0.0115,-0.0104,-0.0073,-0.0042,-0.0035,-0.0024,-0.0033,0.0007,-0.0006,0.0011,0.0047,0.0048,0.0041,-0.0021,-0.0009,-0.004,-0.0012,-0.0013,-0.0013,0,-0.0204,-0.0199,-0.0202,-0.0179,-0.0182,-0.0174,-0.0153,-0.0137,-0.0121,-0.0115,-0.0116,-0.0088,-0.0098,-0.0077,-0.008,-0.0079,-0.0059,-0.0036,-0.0036,-0.001,0.0035,0.0013,-0.0047,-0.002,-0.0019,-0.0019,-0.0018,0,-0.019,-0.0183,-0.0182,-0.0182,-0.0167,-0.0164,-0.0158,-0.0148,-0.0134,-0.0139,-0.0129,-0.0143,-0.014,-0.0138,-0.0117,-0.0104,-0.0118,-0.0076,-0.0063,-0.0063,-0.0027,-0.0024,-0.0071,-0.0071,-0.0071,-0.007,-0.007,0,-0.0176,-0.0179,-0.0175,-0.0175,-0.0156,-0.0167,-0.0157,-0.015,-0.0158,-0.0144,-0.0155,-0.0129,-0.0156,-0.0153,-0.0142,-0.0142,-0.0141,-0.0093,-0.0076,-0.0062,-0.0061,-0.0009,-0.0001,-0.0072,-0.0071,-0.0071,-0.0071,0,-0.0184,-0.0188,-0.0167,-0.0157,-0.0147,-0.0149,-0.0147,-0.0138,-0.016,-0.0141,-0.0147,-0.0142,-0.0155,-0.0171,-0.0164,-0.0163,-0.0153,-0.0138,-0.014,-0.0123,-0.01,-0.0097,-0.0141,-0.0142,-0.0142,-0.0143,-0.0143,0,-0.0196,-0.0186,-0.0156,-0.0136,-0.0138,-0.0135,-0.0129,-0.0146,-0.0146,-0.0121,-0.0113,-0.0114,-0.0059,-0.0096,-0.0135,-0.0154,-0.0154,-0.0166,-0.0123,-0.0131,-0.011,-0.0105,-0.0101,-0.0121,-0.0122,-0.0122,-0.0122,0,-0.0197,-0.0193,-0.0165,-0.0132,-0.0114,-0.0088,-0.0089,-0.0086,-0.0104,-0.0063,-0.0003,0.0062,0.0024,-0.0003,-0.0082,-0.0082,-0.0175,-0.0167,-0.0174,-0.0104,-0.0115,-0.0092,-0.0089,-0.0123,-0.0123,-0.0123,-0.0123,-0.0123,-0.0195,-0.0173,-0.0135,-0.01,-0.0076,-0.0051,-0.0024,-0.0006,0.0032,0.0119,0.0141,0.0239,0.0075,0.0027,-0.0054,-0.0148,-0.012,-0.0151,-0.0149,-0.0148,-0.0138,-0.0149,-0.0163,-0.0163,-0.0164,-0.0164,-0.0164,0,-0.0166,-0.0133,-0.0105,-0.0053,-0.0021,-0.0024,0.0006,0.0062,0.014,0.0224,0.0347,0.0253,0.022,0.0057,-0.006,-0.0133,-0.0117,-0.0175,-0.0155,-0.0154,-0.0152,-0.0142,-0.0168,-0.0169,-0.0169,-0.0169,0,0,-0.0142,-0.0095,-0.0082,-0.0011,0.0014,0.0063,0.0086,0.0195,0.0258,0.0379,0.0418,0.0486,0.0237,0.0105,-0.0032,-0.0087,-0.0084,-0.0086,-0.0071,-0.0028,-0.0026,-0.0128,-0.0108,0,0,0,0,0]}],[{"header":{"parameterUnit":"m.s-1","parameterCategory":2,"la1":30.2991,"la2":30.254,"lo1":-89.0895,"lo2":-89.0444,"dy":0.0017,"dx":0.0017,"nx":28,"ny":28,"refTime":"2023-08-19T09:00:00:Z","depth":"4","parameterNumber":2,"parameterNumberName":"U-component_of_CURRENTS"},"data":[0,0,0,0,0,0,0,0,0,0,0,0,0,0,0,0,0,0,0,0,0,0,0,0,0,0,0,0,0,0,0,0,0,0,0,0,0,0,0,0,0,0,0,0,0,0,0,0,0,0,0,0,0,0,0,0,0,0,-0.0399,-0.0399,0,-0.0396,-0.0397,-0.0397,-0.042,-0.042,-0.042,-0.0421,-0.0547,-0.055,-0.0553,0,0,0,0,0,0,0,0,0,0,0,0,0,-0.0397,-0.0398,-0.0399,-0.0399,-0.0398,-0.0396,-0.0397,-0.0397,-0.042,-0.042,-0.0421,-0.0421,-0.0546,-0.0549,-0.0553,0,0,0,0,0,0,0,0,0,0,0,0,0,-0.04,-0.0398,-0.0399,-0.0407,-0.0407,-0.0396,-0.0397,-0.0397,-0.042,-0.042,-0.0421,-0.0421,-0.0544,-0.0549,-0.0553,-0.0572,0,0,-0.0567,-0.0569,0,0,0,0,0,0,0,0,-0.04,-0.04,-0.0406,-0.0406,-0.0407,-0.0406,-0.0442,-0.0461,-0.042,-0.0418,-0.0421,-0.0421,-0.0509,-0.0516,-0.0518,-0.0578,-0.0583,-0.0568,-0.0571,-0.0572,-0.0574,0,0,0,0,0,0,0,-0.04,-0.04,-0.0401,-0.0406,-0.0406,-0.0401,-0.0403,-0.0445,-0.0466,-0.0419,-0.0419,-0.0414,-0.0511,-0.0513,-0.0521,-0.0585,-0.0568,-0.0572,-0.0574,-0.0576,-0.0728,-0.073,0,0,0,0,0,0,-0.0394,-0.04,-0.0401,-0.0401,-0.0401,-0.0401,-0.0403,-0.0408,-0.0463,-0.0469,-0.0413,-0.0415,-0.0505,-0.0516,-0.0526,-0.0647,-0.0572,-0.0577,-0.0579,-0.0727,-0.0729,-0.073,0,0,0,0,0,0,-0.0394,-0.0395,-0.0401,-0.0397,-0.0397,-0.04,-0.0406,-0.0408,-0.0418,-0.0457,-0.0467,-0.0422,-0.0506,-0.052,-0.0582,-0.0649,-0.0579,-0.0583,-0.0726,-0.0728,-0.0729,-0.0829,0,0,0,0,0,0,-0.0394,-0.0395,-0.0395,-0.0397,-0.0397,-0.0398,-0.0406,-0.0408,-0.0411,-0.0414,-0.0467,-0.0479,-0.0507,-0.0575,-0.0587,-0.0654,-0.0587,-0.0724,-0.0727,-0.0729,-0.0824,-0.0834,-0.0842,0,0,0,0,0,-0.0395,-0.0385,-0.0395,-0.0395,-0.0398,-0.0397,-0.0397,-0.0403,-0.0411,-0.0414,-0.0463,-0.0477,-0.0599,-0.058,-0.0593,-0.0663,-0.0723,-0.0726,-0.0729,-0.0819,-0.0832,-0.0842,0,0,0,0,0,0,-0.0377,-0.0386,-0.0397,-0.039,-0.0397,-0.04,-0.0393,-0.0405,-0.0441,-0.0456,-0.0495,-0.051,-0.059,-0.0599,-0.0577,-0.0708,-0.0663,-0.0669,-0.0728,-0.0739,-0.0748,-0.0724,-0.059,0,0,0,0,0,-0.0374,-0.0376,-0.0385,-0.038,-0.0382,-0.0392,-0.0392,-0.0406,-0.0434,-0.0449,-0.0485,-0.0538,-0.0609,-0.065,-0.0691,-0.0765,-0.073,-0.0814,-0.0824,-0.0832,-0.0818,-0.0856,-0.0868,-0.074,-0.074,-0.074,0,0,-0.0368,-0.0369,-0.0373,-0.0377,-0.0382,-0.0382,-0.0394,-0.0402,-0.042,-0.0461,-0.05,-0.0566,-0.063,-0.0718,-0.0755,-0.0741,-0.0838,-0.0836,-0.0843,-0.0824,-0.0861,-0.0873,-0.0884,-0.0742,-0.0741,-0.0741,0,0,-0.0345,-0.0358,-0.035,-0.0357,-0.0366,-0.0376,-0.038,-0.0399,-0.0426,-0.0482,-0.053,-0.0617,-0.0701,-0.0768,-0.0816,-0.089,-0.0878,-0.0926,-0.0975,-0.1014,-0.1025,-0.1035,-0.0955,-0.0957,-0.0943,-0.0943,-0.0944,0,-0.0333,-0.0332,-0.0347,-0.0339,-0.0347,-0.0373,-0.0377,-0.0402,-0.0444,-0.0475,-0.0501,-0.0651,-0.0719,-0.0839,-0.0901,-0.0914,-0.0903,-0.0938,-0.1028,-0.1037,-0.1045,-0.0961,-0.0962,-0.0949,-0.0948,-0.0947,-0.0947,0,-0.0308,-0.031,-0.0303,-0.0311,-0.0324,-0.0331,-0.037,-0.0395,-0.0444,-0.0481,-0.0595,-0.0699,-0.0799,-0.0856,-0.0927,-0.1042,-0.0999,-0.1029,-0.1003,-0.1064,-0.0971,-0.0969,-0.0956,-0.0954,-0.0953,-0.0951,0,0,-0.0278,-0.0285,-0.0285,-0.0292,-0.032,-0.0327,-0.0363,-0.0407,-0.0438,-0.0522,-0.0582,-0.0762,-0.084,-0.0898,-0.1002,-0.1067,-0.1134,-0.1108,-0.1108,-0.1029,-0.1154,-0.0962,-0.0941,-0.1217,-0.1218,-0.122,-0.1047,0,-0.0257,-0.0237,-0.0261,-0.0265,-0.0263,-0.0312,-0.0346,-0.0397,-0.0459,-0.0518,-0.0647,-0.0765,-0.0852,-0.0968,-0.1042,-0.1132,-0.1145,-0.1171,-0.1103,-0.1097,-0.0925,-0.094,-0.1225,-0.1046,-0.1045,-0.1045,-0.1045,0,-0.0232,-0.022,-0.0221,-0.0253,-0.0262,-0.0281,-0.0346,-0.0392,-0.0478,-0.055,-0.0671,-0.0766,-0.0923,-0.0985,-0.1094,-0.1126,-0.1146,-0.1169,-0.1164,-0.0949,-0.0906,-0.0983,-0.1042,-0.1042,-0.1042,-0.1042,-0.1043,0,-0.0208,-0.0204,-0.0208,-0.0216,-0.0251,-0.0282,-0.0325,-0.0401,-0.0454,-0.0599,-0.0647,-0.0805,-0.0906,-0.0989,-0.1035,-0.1122,-0.1052,-0.1163,-0.0952,-0.0934,-0.1116,-0.1108,-0.1176,-0.1176,-0.1177,-0.1177,-0.1178,0,-0.0187,-0.019,-0.0196,-0.0201,-0.0222,-0.0275,-0.033,-0.04,-0.0493,-0.0531,-0.0694,-0.0716,-0.0935,-0.0915,-0.0979,-0.0898,-0.0992,-0.0926,-0.0893,-0.115,-0.1149,-0.111,-0.1105,-0.1171,-0.1172,-0.1174,-0.1175,0,-0.018,-0.0179,-0.0184,-0.0208,-0.0217,-0.0252,-0.0328,-0.0357,-0.0469,-0.0519,-0.0587,-0.0678,-0.0685,-0.0726,-0.0794,-0.0784,-0.0753,-0.0673,-0.0808,-0.0789,-0.0627,-0.0629,-0.0507,-0.0499,-0.0492,-0.0487,-0.0482,0,-0.0175,-0.0175,-0.0187,-0.0185,-0.0203,-0.0243,-0.0262,-0.0362,-0.039,-0.0441,-0.0443,-0.0464,-0.0506,-0.0373,-0.0464,-0.0447,-0.0464,-0.0414,-0.0678,-0.0585,-0.0567,-0.0579,-0.059,-0.0471,-0.047,-0.0468,-0.0466,0,-0.0173,-0.0189,-0.0192,-0.0178,-0.0186,-0.0184,-0.0218,-0.0221,-0.0307,-0.038,-0.0322,-0.0313,-0.0234,-0.0273,-0.0196,-0.0211,-0.0472,-0.0348,-0.0368,-0.0617,-0.0542,-0.0532,-0.055,-0.0443,-0.0446,-0.0449,-0.045,0,-0.0184,-0.0181,-0.0182,-0.0174,-0.0161,-0.0122,-0.0142,-0.0132,-0.0165,-0.0232,-0.0159,-0.0149,-0.0184,-0.0129,-0.0053,-0.0046,-0.0152,-0.0225,-0.0255,-0.0281,-0.0296,-0.0172,0.0095,0,0,0,0,0,-0.0187,-0.0179,-0.0167,-0.0142,-0.0121,-0.0107,-0.0102,-0.0119,-0.0151,-0.0102,-0.0155,-0.008,-0.0023,0.0009,0.004,0.0022,-0.0147,0.0061,-0.0248,-0.0315,-0.0342,-0.0385,0,0,0,0,0,0,-0.0183,-0.0183,-0.0164,-0.0109,-0.0079,-0.0042,-0.0024,-0.0038,-0.0022,-0.006,-0.0026,-0.0064,-0.0009,-0.0051,0.0041,0.0045,-0.0142,0.0062,0.0063,-0.03,-0.0324,-0.0346,-0.04,0,0,0,0,0]},{"header":{"parameterUnit":"m.s-1","parameterCategory":2,"la1":30.2991,"la2":30.254,"lo1":-89.0895,"lo2":-89.0444,"dy":0.0017,"dx":0.0017,"nx":28,"ny":28,"refTime":"2023-08-19T09:00:00:Z","depth":"4","parameterNumber":3,"parameterNumberName":"V-component_of_CURRENTS"},"data":[0,0,0,0,0,0,0,0,0,0,0,0,0,0,0,0,0,0,0,0,0,0,0,0,0,0,0,0,0,0,0,0,0,0,0,0,0,0,0,0,0,0,0,0,0,0,0,0,0,0,0,0,0,0,0,0,0,0,-0.0379,-0.0379,0,-0.0434,-0.0435,-0.0436,-0.0432,-0.0431,-0.043,-0.0429,-0.0464,-0.0465,-0.0467,0,0,0,0,0,0,0,0,0,0,0,0,0,-0.0288,-0.029,-0.0379,-0.0379,-0.038,-0.0434,-0.0435,-0.0436,-0.0432,-0.0431,-0.0429,-0.0428,-0.0463,-0.0465,-0.0467,0,0,0,0,0,0,0,0,0,0,0,0,0,-0.0336,-0.0291,-0.0378,-0.0382,-0.0383,-0.0434,-0.0435,-0.0436,-0.0432,-0.043,-0.0429,-0.0427,-0.0462,-0.0465,-0.0468,-0.0517,0,0,-0.0477,-0.0478,0,0,0,0,0,0,0,0,-0.0333,-0.034,-0.0381,-0.0382,-0.0383,-0.0422,-0.0416,-0.0461,-0.0432,-0.0416,-0.0428,-0.0427,-0.0447,-0.0451,-0.0469,-0.0518,-0.052,-0.0477,-0.0478,-0.048,-0.0481,0,0,0,0,0,0,0,-0.033,-0.0337,-0.0403,-0.0382,-0.0383,-0.0387,-0.0393,-0.0425,-0.0441,-0.0417,-0.0417,-0.0419,-0.0448,-0.0466,-0.047,-0.052,-0.0477,-0.0479,-0.0481,-0.0482,-0.059,-0.0591,0,0,0,0,0,0,-0.032,-0.0335,-0.0401,-0.0404,-0.0351,-0.039,-0.0396,-0.0413,-0.0441,-0.0444,-0.0421,-0.0419,-0.0462,-0.0466,-0.0471,-0.0523,-0.048,-0.0482,-0.0484,-0.0589,-0.059,-0.0591,0,0,0,0,0,0,-0.0318,-0.0326,-0.0399,-0.0368,-0.0377,-0.0393,-0.0412,-0.0415,-0.0444,-0.0444,-0.0446,-0.0448,-0.0461,-0.0467,-0.0523,-0.0524,-0.0484,-0.0486,-0.0587,-0.0589,-0.0591,-0.0631,0,0,0,0,0,0,-0.0315,-0.0325,-0.0341,-0.0368,-0.0378,-0.0433,-0.0414,-0.0417,-0.0446,-0.0445,-0.0468,-0.0468,-0.046,-0.0519,-0.0526,-0.0527,-0.0488,-0.0586,-0.0588,-0.059,-0.0629,-0.0634,-0.0639,0,0,0,0,0,-0.0312,-0.0334,-0.0342,-0.0349,-0.0397,-0.0434,-0.0441,-0.0448,-0.0449,-0.0469,-0.0495,-0.0468,-0.0535,-0.0524,-0.0531,-0.0533,-0.0585,-0.0588,-0.059,-0.0626,-0.0633,-0.0639,0,0,0,0,0,0,-0.0302,-0.0336,-0.0345,-0.0376,-0.0406,-0.0433,-0.045,-0.0465,-0.0504,-0.0507,-0.0509,-0.0513,-0.0553,-0.0551,-0.0538,-0.0569,-0.0546,-0.055,-0.0571,-0.0577,-0.0583,-0.057,-0.0491,0,0,0,0,0,-0.0309,-0.0337,-0.0367,-0.0396,-0.041,-0.0439,-0.0458,-0.047,-0.0502,-0.0518,-0.054,-0.0556,-0.0571,-0.0582,-0.06,-0.0639,-0.061,-0.0637,-0.0643,-0.0647,-0.0642,-0.0598,-0.0598,-0.06,-0.06,-0.06,0,0,-0.0314,-0.0336,-0.0353,-0.0396,-0.0419,-0.0446,-0.0448,-0.0485,-0.0513,-0.0518,-0.0574,-0.0588,-0.0589,-0.0621,-0.0636,-0.0619,-0.0637,-0.065,-0.0654,-0.0646,-0.06,-0.06,-0.0599,-0.0602,-0.0601,-0.0601,0,0,-0.033,-0.036,-0.0383,-0.0414,-0.0452,-0.0466,-0.0482,-0.0528,-0.0552,-0.0618,-0.0611,-0.0641,-0.0682,-0.0675,-0.0676,-0.0729,-0.0671,-0.0718,-0.0732,-0.0689,-0.0688,-0.0686,-0.067,-0.0667,-0.0714,-0.0715,-0.0715,0,-0.0329,-0.0369,-0.0396,-0.0427,-0.0449,-0.0476,-0.0504,-0.0539,-0.0602,-0.0628,-0.0638,-0.0696,-0.0704,-0.0719,-0.0725,-0.0739,-0.0704,-0.0706,-0.0694,-0.0691,-0.0689,-0.0672,-0.0668,-0.0717,-0.0717,-0.0716,-0.0716,0,-0.0363,-0.0397,-0.0415,-0.0457,-0.0485,-0.052,-0.0559,-0.0599,-0.0635,-0.0668,-0.0722,-0.075,-0.077,-0.0773,-0.0767,-0.0751,-0.0731,-0.0708,-0.0672,-0.069,-0.0673,-0.0668,-0.072,-0.0719,-0.0719,-0.0718,0,0,-0.0355,-0.0422,-0.0431,-0.0453,-0.0507,-0.0531,-0.0577,-0.0623,-0.0654,-0.072,-0.0761,-0.0795,-0.0805,-0.0806,-0.0799,-0.0768,-0.0736,-0.0724,-0.0721,-0.0699,-0.0645,-0.0624,-0.0616,-0.0691,-0.069,-0.0689,-0.0647,0,-0.037,-0.0417,-0.0454,-0.0501,-0.0523,-0.0565,-0.0602,-0.065,-0.0698,-0.075,-0.0783,-0.0819,-0.0816,-0.0821,-0.0795,-0.0745,-0.0719,-0.075,-0.0638,-0.0635,-0.0605,-0.0608,-0.0685,-0.0643,-0.0642,-0.0641,-0.064,0,-0.0393,-0.0416,-0.0462,-0.0513,-0.0529,-0.0567,-0.062,-0.066,-0.0726,-0.077,-0.0812,-0.0828,-0.0824,-0.0812,-0.0742,-0.0751,-0.07,-0.0665,-0.0662,-0.0619,-0.0603,-0.0615,-0.0629,-0.063,-0.0631,-0.0632,-0.0632,0,-0.0365,-0.0425,-0.0457,-0.0482,-0.0542,-0.0578,-0.0609,-0.0671,-0.0708,-0.0776,-0.08,-0.0816,-0.0807,-0.0756,-0.0705,-0.0698,-0.0621,-0.0603,-0.0549,-0.0549,-0.0561,-0.0562,-0.0543,-0.0543,-0.0544,-0.0544,-0.0544,0,-0.037,-0.0401,-0.0454,-0.0479,-0.0518,-0.0566,-0.062,-0.0664,-0.0724,-0.0751,-0.08,-0.0796,-0.0776,-0.0741,-0.07,-0.0616,-0.0615,-0.0549,-0.0527,-0.0585,-0.0589,-0.0558,-0.056,-0.0542,-0.0542,-0.0543,-0.0543,0,-0.0358,-0.0393,-0.043,-0.0489,-0.0514,-0.0544,-0.0621,-0.065,-0.0707,-0.0738,-0.0749,-0.0758,-0.0694,-0.0697,-0.061,-0.0589,-0.053,-0.0502,-0.0592,-0.0577,-0.0489,-0.0494,-0.0422,-0.0421,-0.042,-0.0419,-0.0418,0,-0.0363,-0.0378,-0.0431,-0.045,-0.0492,-0.0543,-0.0574,-0.0644,-0.0668,-0.0692,-0.0689,-0.0654,-0.0652,-0.054,-0.0534,-0.0494,-0.0479,-0.0469,-0.0456,-0.0485,-0.0472,-0.0479,-0.0485,-0.0416,-0.0416,-0.0416,-0.0415,0,-0.0359,-0.0378,-0.0403,-0.0428,-0.047,-0.0509,-0.0558,-0.0565,-0.0616,-0.0662,-0.0606,-0.0579,-0.0519,-0.0476,-0.047,-0.0433,-0.0489,-0.0457,-0.0458,-0.0446,-0.0477,-0.0467,-0.0474,-0.0412,-0.0412,-0.0412,-0.0413,0,-0.0355,-0.0359,-0.0378,-0.0405,-0.044,-0.046,-0.0495,-0.0503,-0.0526,-0.0555,-0.0513,-0.0493,-0.0485,-0.0441,-0.0422,-0.041,-0.0382,-0.0371,-0.0376,-0.038,-0.0389,-0.0424,-0.0315,0,0,0,0,0,-0.0341,-0.0335,-0.035,-0.0375,-0.0405,-0.0429,-0.0471,-0.05,-0.0532,-0.0478,-0.0505,-0.0451,-0.0405,-0.0385,-0.0357,-0.0398,-0.0394,-0.0365,-0.0386,-0.0391,-0.0395,-0.0411,0,0,0,0,0,0,-0.0328,-0.0334,-0.0333,-0.034,-0.0351,-0.0387,-0.0407,-0.0435,-0.041,-0.0433,-0.04,-0.0429,-0.0383,-0.0411,-0.0347,-0.0348,-0.0352,-0.0364,-0.0363,-0.0388,-0.0392,-0.0396,-0.0414,0,0,0,0,0]}]]